GFSCGP_prec_cthk_132.txt.gz
RH
29 33 39 42 49 59 64 73 78 95 96 89 85 87 80 78 76 75 75 65 50 49 56 59 63 64 70 62 63 50 47 45 46 47 47 46 50 53 53 52 50 50 57 51
27 31 43 48 53 62 57 70 86 91 92 89 93 89 81 79 78 79 78 74 64 53 53 56 62 64 63 65 61 59 54 50 47 50 60 52 52 52 52 53 54 56 49 47
22 27 43 45 56 56 62 69 75 78 80 84 89 92 86 80 80 79 81 66 56 52 58 56 58 66 70 66 65 63 60 62 56 49 48 50 51 60 59 55 51 51 51 52
17 24 36 42 50 51 62 72 69 76 76 79 80 90 90 84 81 83 83 74 66 57 66 63 58 63 65 65 66 67 66 65 59 55 49 48 52 51 53 54 51 44 46 60
16 22 32 38 45 53 59 58 71 69 75 76 77 78 82 85 82 77 81 77 76 70 64 59 54 56 62 65 65 70 71 68 60 56 52 52 54 56 52 52 50 47 44 57
20 25 30 33 32 47 62 61 75 72 78 81 75 75 82 80 70 75 79 81 78 74 77 72 68 63 59 64 67 69 73 68 59 60 59 53 55 54 54 48 45 43 47 43
23 23 28 30 40 46 54 64 78 79 80 74 77 81 71 71 73 75 74 80 82 81 79 80 83 82 68 60 64 64 66 72 65 63 62 60 58 56 53 53 56 44 44 44
25 27 30 33 40 48 53 61 67 76 73 66 75 78 70 65 62 70 70 74 81 80 80 80 80 80 68 62 63 63 63 69 73 65 62 60 56 56 58 55 50 44 42 39
30 31 35 35 32 36 42 49 48 59 57 52 65 80 75 66 66 62 61 63 69 70 75 79 76 75 78 67 76 67 57 64 67 68 62 60 57 58 61 63 62 54 47 46
34 36 33 33 35 29 36 43 39 42 49 51 57 76 83 68 62 59 59 57 59 63 67 72 73 76 77 76 83 74 65 56 57 60 66 63 57 64 70 70 61 54 55 53
34 36 36 35 31 30 33 36 34 33 37 41 54 63 64 57 57 50 48 52 57 57 60 63 66 70 73 80 80 82 78 59 53 55 56 69 66 67 67 69 68 64 59 55
38 39 39 37 40 32 35 38 33 35 32 38 39 55 57 55 52 53 53 53 61 61 55 58 63 67 68 76 76 82 83 70 58 45 53 56 69 74 75 74 75 74 74 65
37 46 47 44 42 38 38 40 38 33 31 30 35 52 52 54 53 51 54 56 67 64 62 61 61 61 64 72 76 82 83 86 74 51 42 53 57 64 71 68 69 77 77 75
37 46 49 52 51 47 43 36 37 37 35 36 50 58 56 55 50 52 54 57 56 57 64 67 71 68 66 69 73 75 80 83 88 83 44 46 46 46 49 54 55 62 70 78
42 41 47 47 47 49 43 41 39 41 40 34 52 60 66 61 55 54 62 62 61 63 57 72 78 79 71 73 75 78 81 84 84 87 63 49 46 48 44 44 45 50 57 70
42 42 43 46 43 45 53 45 45 49 52 57 56 59 56 58 53 48 53 55 56 59 67 67 80 79 71 72 77 81 79 85 81 81 73 67 63 56 53 46 43 39 41 55
39 44 41 42 42 42 54 62 54 61 62 63 66 61 55 57 57 53 52 58 56 59 66 82 78 81 83 81 81 80 81 82 83 87 84 79 87 87 79 78 78 78 67 56
35 36 39 42 46 60 56 54 51 57 69 69 65 62 62 62 67 62 59 59 60 62 70 79 96 95 95 90 86 85 86 85 84 88 83 82 89 86 85 89 93 92 92 88
31 38 43 41 51 54 60 60 55 62 71 69 69 69 70 70 67 67 64 66 68 65 67 70 80 87 87 99 95 93 90 91 90 90 93 94 89 89 89 89 90 87 87 90
33 41 34 41 37 47 56 55 56 57 68 69 66 67 67 63 59 56 57 54 56 58 58 59 64 71 80 88 85 89 90 90 88 83 81 80 80 82 83 79 77 75 74 79
45 41 40 39 36 47 48 49 52 58 66 63 68 68 67 63 60 58 58 56 54 53 54 53 54 55 61 70 81 85 85 84 83 80 75 71 68 68 68 65 63 62 64 67
35 35 38 44 43 44 45 50 55 59 61 59 61 63 60 58 61 58 57 52 49 48 50 55 55 53 60 63 64 68 74 76 78 75 73 71 68 67 65 65 66 68 70 71
29 28 30 33 39 40 42 43 47 52 57 59 57 56 56 56 60 54 50 50 48 47 51 54 62 66 65 65 65 63 61 61 62 63 67 74 75 74 73 72 70 70 70 75
32 31 33 35 40 42 41 41 44 48 51 52 61 57 57 55 60 62 59 55 51 48 47 52 56 59 63 67 66 65 67 66 63 61 62 62 66 70 75 72 72 70 72 74
32 31 33 37 35 37 41 43 45 42 46 51 57 59 57 50 49 51 51 51 48 47 44 49 55 58 60 64 67 65 68 71 68 68 67 64 70 66 67 71 73 72 71 73
30 29 33 34 30 33 35 38 45 47 50 52 56 58 57 50 46 40 46 43 40 42 43 44 45 48 51 53 57 61 65 70 75 75 73 71 70 68 67 69 77 74 70 72

GFSCGP_prec_cthk_135.txt.gz
RH
31 38 44 42 41 50 70 78 87 89 95 97 97 87 92 84 78 79 80 78 61 56 63 68 67 68 62 57 55 46 42 41 42 46 53 55 52 52 51 51 60 66 60 57
29 33 43 42 44 49 63 58 76 93 90 88 94 97 94 87 82 79 78 79 70 64 58 66 68 69 66 62 57 47 42 40 43 43 49 50 49 51 53 54 55 61 56 50
26 28 38 46 46 58 56 61 76 77 90 94 85 94 93 89 88 82 80 79 71 60 56 62 68 72 69 66 63 55 52 46 46 46 47 46 45 51 52 52 57 59 52 50
19 29 34 42 49 59 59 69 71 79 81 87 82 90 85 85 91 83 81 74 71 72 64 64 68 73 73 69 72 64 59 57 53 46 47 50 50 58 56 54 57 55 57 48
16 24 32 39 48 59 64 69 68 73 80 78 76 77 76 78 86 82 84 79 74 60 66 65 66 67 69 72 71 68 63 61 58 55 50 46 50 53 52 52 53 50 52 60
17 22 29 36 43 46 69 74 71 74 79 78 72 74 71 76 73 78 83 79 83 75 72 66 62 60 65 70 71 72 70 67 62 57 53 49 52 52 51 50 48 47 47 53
19 21 27 34 53 51 60 69 77 78 76 77 72 74 68 71 71 69 74 81 85 86 75 74 71 64 64 64 70 73 71 69 65 60 57 52 50 53 54 49 45 42 44 47
25 26 27 34 42 53 50 55 68 79 75 70 74 78 69 66 69 67 68 74 83 88 87 82 78 73 75 68 64 69 69 72 67 63 61 61 61 60 55 55 51 50 42 43
33 32 36 36 42 48 47 52 54 69 62 63 73 73 64 64 63 64 65 71 76 79 82 82 84 83 82 73 66 65 65 69 72 72 63 63 64 58 59 56 52 48 44 43
32 36 36 38 42 50 45 44 51 66 61 54 64 71 64 62 61 64 66 63 65 68 74 80 81 84 83 77 70 66 66 63 68 70 65 62 61 64 63 64 60 57 51 47
35 38 39 37 40 38 37 39 41 45 47 49 70 66 59 58 55 62 64 64 62 63 68 76 75 78 76 76 76 70 75 58 63 61 64 66 61 67 71 73 68 64 56 52
36 39 41 40 39 40 38 41 40 40 37 42 41 50 58 60 55 53 53 54 57 59 63 67 71 74 78 76 77 77 81 71 63 61 57 60 67 68 71 76 76 73 66 59
36 41 44 43 43 43 45 41 42 40 34 35 34 36 55 57 57 57 59 55 59 59 64 65 63 66 74 73 75 79 80 84 77 63 55 57 59 73 76 79 83 85 81 75
39 45 43 49 52 54 45 41 38 39 40 40 40 48 56 56 57 60 60 58 60 68 65 64 64 64 65 67 75 76 79 83 83 76 67 55 53 59 70 78 82 81 79 83
44 44 50 49 50 54 52 49 48 49 46 36 45 54 60 60 59 55 55 63 64 66 69 68 71 69 69 68 68 73 79 82 87 90 86 79 58 54 56 60 62 64 70 76
44 43 47 48 58 58 57 57 52 50 53 58 55 56 61 59 57 58 56 62 65 65 60 63 68 73 77 87 80 79 80 83 87 91 90 88 78 55 57 52 54 62 66 66
45 46 44 45 54 52 61 63 62 62 59 60 64 62 56 60 60 60 55 53 58 61 62 60 66 73 78 89 90 90 91 92 91 87 89 91 89 71 66 59 54 57 57 55
38 39 49 50 52 59 60 61 58 60 60 56 61 62 63 65 63 61 59 57 57 57 56 57 59 69 82 89 93 93 95 96 93 90 86 89 92 83 79 81 73 63 80 83
37 41 44 40 55 62 61 57 56 55 60 62 60 62 65 66 67 64 67 64 64 62 59 58 53 54 63 80 87 92 98 97 91 91 91 90 90 84 83 83 79 82 87 92
28 29 36 41 42 49 59 56 54 57 66 68 65 67 66 64 58 61 62 63 62 61 59 59 56 54 61 65 64 76 90 99 97 97 90 84 82 83 83 85 86 85 85 83
40 38 36 41 44 52 53 54 50 55 57 60 67 70 67 68 65 65 65 64 60 60 61 61 62 59 66 71 71 79 77 82 86 88 88 87 87 86 86 84 83 82 80 82
35 42 45 39 40 40 37 36 42 50 54 57 61 63 66 64 63 62 61 59 61 59 58 58 61 61 65 64 67 70 70 79 88 89 87 84 81 80 80 80 76 72 70 70
26 25 29 31 35 38 38 38 37 41 51 59 60 62 62 56 56 57 54 52 51 54 58 59 58 59 64 67 70 71 71 69 76 78 81 80 78 75 75 75 78 77 76 74
30 31 34 33 33 32 31 33 33 39 44 50 57 60 59 57 56 56 55 55 54 52 56 56 58 61 61 65 68 70 72 75 75 75 73 71 68 69 71 70 75 78 77 79
30 30 32 33 33 33 29 32 38 41 45 47 50 53 57 57 54 48 46 51 53 53 55 55 51 53 55 57 61 62 65 67 72 73 70 74 72 70 68 66 67 71 74 73
30 32 32 30 27 28 26 27 36 44 56 61 51 53 56 51 46 42 41 46 46 48 44 44 44 45 47 50 54 57 61 63 66 67 67 67 68 66 70 78 72 73 75 76

GFSCGP_prec_cthk_138.txt.gz
RH
26 37 43 41 39 47 64 73 82 89 88 92 97 98 89 92 87 81 84 77 60 58 68 72 68 60 55 52 52 48 47 47 46 54 60 58 57 55 56 62 62 58 53 53
27 32 39 42 41 44 53 63 68 81 90 88 94 89 96 95 88 79 82 76 63 63 68 69 70 66 60 57 55 48 45 45 44 49 55 57 54 50 51 56 66 65 58 52
23 28 37 42 42 46 52 58 75 74 87 89 91 92 99 97 91 83 82 79 72 60 61 65 67 67 64 60 56 50 48 46 44 46 51 56 53 50 51 54 58 59 57 54
21 25 32 41 42 46 53 69 75 78 83 89 87 92 95 93 86 86 86 81 67 59 60 65 68 70 67 63 60 55 54 52 47 45 48 49 49 49 50 51 57 56 53 52
22 20 29 35 43 54 64 70 72 77 81 81 84 83 75 81 82 87 85 81 69 57 61 62 67 71 71 68 66 61 60 59 55 52 49 51 50 59 57 55 57 58 53 45
19 18 23 31 37 50 68 69 80 76 77 77 74 75 71 79 71 76 81 74 68 60 62 62 65 75 70 71 73 66 62 62 60 58 54 52 56 54 57 56 52 51 50 51
20 17 20 30 44 50 60 63 79 77 78 76 73 72 63 66 67 74 78 80 78 63 62 63 61 62 66 68 71 72 69 68 64 61 57 54 52 52 53 51 52 50 48 46
23 18 23 28 37 48 51 59 66 75 84 71 75 74 67 66 67 71 75 80 81 75 71 70 59 64 66 69 68 73 69 67 65 61 59 54 49 53 54 54 50 45 47 46
30 30 32 35 34 42 54 60 61 62 70 66 64 68 69 70 72 74 72 75 76 79 73 72 72 70 65 66 72 68 71 65 68 63 63 56 54 55 55 56 55 54 52 46
32 35 36 36 42 47 53 54 59 70 72 61 60 75 69 72 70 70 71 71 75 78 79 79 79 76 73 80 74 67 69 67 69 68 70 61 60 56 55 59 57 55 53 49
36 38 40 42 48 52 52 53 54 54 61 55 69 66 76 74 66 69 69 70 70 71 74 77 80 83 79 84 82 75 67 67 64 69 71 63 60 58 59 60 60 59 58 54
38 40 45 47 45 46 44 44 44 51 44 49 49 48 70 67 67 65 65 65 66 65 68 76 80 82 82 83 84 83 74 72 66 62 63 61 63 60 64 69 71 72 71 66
40 45 48 49 50 46 46 43 40 39 37 40 37 38 65 64 66 65 64 63 60 62 67 71 76 78 79 82 82 82 82 79 79 72 65 62 56 60 63 70 74 78 75 73
42 45 46 56 55 51 49 52 40 38 43 37 37 54 60 61 63 62 64 67 62 66 67 70 74 78 81 84 83 83 83 83 85 83 75 68 61 58 59 70 75 81 84 83
46 46 48 55 55 60 61 56 51 47 47 40 53 63 62 64 68 68 66 66 65 68 71 70 72 73 76 74 78 80 81 84 85 84 83 78 63 62 60 61 66 77 84 84
52 53 49 48 56 58 61 63 61 57 59 58 59 65 63 67 69 69 70 65 65 74 71 72 71 76 78 78 75 76 77 82 87 87 89 89 85 75 74 61 58 60 65 69
51 54 53 52 51 56 61 59 65 61 63 61 62 62 66 66 64 64 64 60 61 62 68 69 66 64 72 75 79 78 77 75 83 88 91 91 91 91 86 76 69 63 59 62
49 54 55 57 55 59 50 57 68 64 64 66 65 71 71 70 69 64 62 59 55 55 58 61 63 63 62 68 74 82 81 86 92 93 95 94 95 95 91 85 80 75 68 60
39 46 48 52 58 56 62 59 56 56 61 63 67 67 68 71 67 64 64 60 58 56 55 57 54 54 55 55 62 69 77 83 94 97 95 96 98 96 94 88 87 82 77 71
38 37 32 39 46 60 53 54 55 57 60 59 66 67 67 66 58 62 59 57 59 60 59 55 54 55 55 56 60 66 70 83 86 92 99 99 94 93 96 89 91 88 85 83
35 38 37 49 48 46 48 52 51 58 56 61 66 71 72 70 67 66 64 63 59 56 55 56 57 59 57 57 59 57 66 67 80 81 89 86 91 92 93 89 83 84 79 79
31 36 43 44 40 33 39 41 42 42 46 54 59 63 69 71 70 70 67 61 60 56 54 54 55 57 61 63 64 63 66 77 87 89 90 89 93 97 92 92 85 82 82 82
26 25 30 32 32 32 34 35 35 35 39 44 53 62 63 65 64 62 58 55 52 51 52 54 54 52 56 60 65 68 69 69 70 77 83 86 91 88 87 84 81 80 81 84
29 30 30 29 27 30 29 26 27 30 33 41 46 51 55 59 62 60 58 56 53 50 50 55 55 59 59 60 62 66 71 72 74 72 72 78 76 76 77 75 73 74 77 77
26 29 31 30 27 28 27 27 27 30 33 38 42 46 52 54 55 57 54 52 52 54 51 52 55 57 58 61 62 63 63 65 69 72 75 73 74 77 75 73 75 73 70 71
26 26 29 28 24 26 24 26 27 29 36 44 53 51 52 53 53 50 47 48 51 53 55 53 50 48 53 54 56 59 61 61 62 61 64 66 72 75 75 75 77 78 77 76

GFSCGP_prec_cthk_141.txt.gz
RH
22 34 40 35 37 51 59 64 66 76 80 80 87 88 90 95 93 87 74 64 64 71 75 63 55 55 54 51 51 52 54 55 55 62 62 62 67 61 62 62 55 53 51 54
19 30 39 40 37 43 47 58 66 74 77 75 81 84 87 93 95 89 83 72 61 67 71 69 60 56 53 54 52 49 50 51 50 56 63 59 58 53 56 60 60 53 48 52
19 26 37 42 39 41 43 48 63 63 73 74 81 88 92 96 90 92 86 73 67 63 69 71 65 61 57 57 54 45 45 48 47 52 57 58 56 52 51 55 62 60 55 48
21 23 30 39 42 43 46 58 64 69 77 83 81 84 84 93 95 90 85 80 70 63 64 67 69 63 60 61 57 51 48 45 45 47 53 55 55 53 54 56 58 54 51 51
22 21 24 29 40 46 57 59 68 71 79 80 84 83 80 85 97 90 84 81 76 60 59 65 67 68 68 64 59 54 55 52 47 43 47 51 52 52 52 54 54 55 52 51
20 20 20 24 30 46 56 56 61 68 75 78 71 77 70 77 72 77 82 81 72 58 56 64 72 72 70 67 66 61 60 58 51 48 47 47 48 50 56 54 55 56 54 48
19 20 19 24 36 51 52 45 57 67 73 69 71 75 62 65 67 70 76 79 75 58 57 60 65 73 69 68 67 67 63 61 58 55 53 50 52 55 53 53 51 51 52 49
21 19 18 22 28 37 43 45 53 62 66 63 69 71 61 66 70 70 76 78 74 66 58 59 58 64 65 67 68 67 68 69 66 61 58 54 52 51 49 50 49 49 49 45
25 25 19 23 31 33 43 45 52 58 58 58 57 60 65 71 70 72 74 77 78 74 62 61 60 58 62 66 67 67 68 66 67 63 61 58 51 50 49 51 49 47 42 44
29 33 29 33 36 40 44 48 55 59 63 62 54 68 70 75 77 78 74 74 81 77 72 76 73 63 65 66 69 70 70 67 66 68 65 63 57 54 53 52 51 48 47 46
32 36 38 45 42 43 46 48 52 53 50 56 60 73 77 78 77 77 76 75 75 78 75 79 78 78 79 71 69 73 69 71 69 67 69 73 64 60 58 54 56 53 51 49
38 38 42 47 46 48 52 54 53 48 53 55 53 61 82 77 78 77 75 77 76 75 75 80 81 82 85 78 74 77 69 69 72 70 70 73 72 63 58 56 61 60 54 53
43 44 46 48 47 51 52 51 45 42 44 55 47 51 77 75 72 74 70 70 69 68 70 75 80 82 83 82 81 82 83 74 73 75 68 67 65 63 63 59 63 68 67 67
43 47 48 44 47 51 53 57 45 42 44 43 42 60 63 66 71 68 71 71 70 68 71 74 77 78 84 82 82 83 85 85 81 79 78 76 73 68 60 60 64 67 72 74
46 51 54 56 52 57 65 62 51 42 46 44 48 57 61 63 68 70 70 70 70 73 72 76 80 81 82 83 88 89 88 86 85 83 85 79 76 76 65 60 61 67 74 76
48 50 57 58 53 58 62 56 56 57 54 57 59 63 63 66 68 70 70 72 73 73 75 77 78 78 76 82 85 86 85 85 88 88 86 88 91 90 80 64 58 71 67 72
52 50 55 57 56 53 64 60 55 58 61 58 58 62 70 69 68 66 65 64 65 64 64 68 69 70 70 69 72 76 83 84 84 84 87 90 91 92 91 84 73 75 71 67
54 56 58 57 57 57 56 54 58 55 65 62 62 67 69 70 70 68 67 63 61 56 54 54 57 64 70 69 67 67 73 77 83 80 80 83 92 93 93 94 89 85 79 75
48 54 56 55 55 57 54 51 54 55 65 72 70 73 74 75 75 73 70 66 63 63 59 52 49 51 54 61 67 71 75 75 79 84 87 92 96 95 99 98 98 92 89 91
41 38 44 47 49 51 51 52 58 57 61 70 70 74 68 64 63 71 67 66 65 65 60 62 54 51 51 53 57 59 61 63 71 82 88 94 93 98 92 97 97 98 96 91
44 36 37 34 37 39 44 48 53 57 60 67 71 71 68 63 62 63 65 66 63 62 60 60 61 60 55 54 58 58 58 59 64 73 82 88 87 88 90 90 92 93 94 93
27 28 32 36 36 32 38 40 43 45 49 56 61 63 62 66 67 69 69 65 63 60 61 59 58 60 60 59 62 62 63 66 79 84 81 80 84 90 90 88 89 86 85 85
28 24 28 33 31 30 32 32 32 34 36 39 41 45 54 64 65 66 69 68 65 62 58 60 61 58 59 62 59 62 63 66 69 77 83 90 95 91 92 92 88 88 86 84
26 24 24 26 25 27 29 28 27 27 31 36 42 46 46 50 52 58 60 59 58 54 55 57 56 54 58 60 61 62 63 67 72 74 72 75 75 82 86 87 89 86 86 85
24 26 28 27 24 25 25 25 26 27 27 29 39 46 49 48 48 48 49 51 52 52 53 52 53 54 54 55 57 60 62 64 66 67 72 74 75 75 80 78 81 79 77 74
22 22 22 21 23 24 25 24 26 25 28 39 48 49 49 49 48 48 46 44 43 49 52 52 51 50 52 54 54 56 58 60 62 63 64 66 69 73 77 79 80 82 81 78

GFSCGP_prec_cthk_147.txt.gz
RH
16 28 38 43 42 54 56 63 73 63 60 63 68 73 84 86 86 79 78 73 69 60 62 58 59 61 62 64 58 53 58 55 58 66 68 73 77 71 65 61 54 51 50 50
14 20 37 46 46 38 40 50 72 76 62 60 69 69 73 86 86 82 79 70 89 67 60 57 59 59 61 61 60 58 63 61 67 70 69 73 72 69 63 63 56 54 50 53
16 19 30 47 37 33 41 45 61 67 64 56 60 73 78 81 85 89 75 87 68 75 75 60 57 59 57 55 54 55 56 59 60 66 72 66 63 64 58 57 55 49 50 59
15 20 29 34 33 35 38 41 46 50 49 64 61 70 75 78 79 85 84 82 67 89 87 65 59 59 58 55 52 54 52 56 53 65 64 62 61 56 60 65 62 56 51 53
21 24 23 27 32 36 40 54 49 62 48 56 60 67 71 73 77 77 84 80 72 65 65 90 66 59 58 55 55 48 48 48 53 47 58 63 59 62 55 61 60 69 55 52
23 24 21 23 28 31 31 43 43 46 47 47 60 59 68 66 68 74 81 80 69 87 69 78 86 67 59 58 55 51 44 46 48 44 57 61 57 54 59 59 62 57 59 52
19 21 16 19 22 25 27 44 43 43 43 47 59 57 61 63 63 70 82 83 76 68 74 65 76 64 62 59 60 55 48 49 47 44 48 54 55 69 57 61 57 60 61 61
24 23 20 17 16 26 23 38 42 63 71 55 56 60 65 60 65 68 71 79 81 65 81 81 61 73 66 66 62 61 52 55 54 49 46 51 54 57 55 57 59 56 74 57
26 24 23 19 15 22 39 34 42 52 46 53 51 69 61 62 66 71 77 75 77 70 58 68 67 77 67 73 67 65 63 60 59 56 52 53 53 55 64 62 57 74 53 77
34 36 31 16 17 23 39 45 49 50 53 64 52 63 79 67 74 75 77 78 79 74 80 84 64 69 68 72 73 68 67 63 63 64 62 60 62 58 53 50 50 49 58 64
28 31 44 20 20 31 32 41 43 47 52 65 61 76 71 70 75 80 78 81 82 78 78 69 78 88 65 68 80 73 72 70 68 68 68 63 64 59 54 51 54 50 50 47
32 32 37 38 33 30 32 33 29 33 52 56 60 79 67 68 79 75 76 82 79 81 79 66 69 70 59 78 71 77 74 74 75 70 71 67 62 64 64 56 56 54 57 56
43 30 35 52 45 36 32 44 42 56 56 55 72 67 56 62 79 80 90 81 74 78 82 74 72 85 60 94 68 83 77 78 81 76 73 71 71 72 71 67 61 60 59 63
29 38 53 64 68 57 47 42 65 63 72 70 64 63 51 64 80 82 90 87 90 76 77 79 83 84 75 72 74 76 75 82 79 82 77 75 71 71 73 74 68 66 67 64
34 49 56 54 46 50 71 55 41 57 74 76 68 59 55 64 75 83 86 83 86 84 86 80 81 92 79 90 76 77 84 77 75 80 84 86 77 76 75 73 77 68 63 66
45 49 57 72 56 58 59 55 40 44 63 55 60 62 59 66 79 82 83 82 85 91 91 86 86 84 83 82 86 90 86 85 85 93 95 85 84 89 86 86 87 90 80 73
49 48 49 52 60 62 46 41 41 46 64 66 59 46 54 64 76 78 80 85 86 94 92 84 76 72 70 76 84 86 89 85 88 97 91 90 91 91 89 92 92 89 91 89
47 44 49 64 70 87 63 47 42 43 60 74 72 56 52 57 68 77 72 79 77 74 87 82 75 74 71 71 68 70 77 82 86 90 90 90 87 92 94 86 89 91 90 91
44 50 57 52 57 68 54 47 43 40 57 83 62 62 58 61 66 71 70 71 70 71 72 74 75 73 67 73 71 71 72 72 75 78 87 92 95 98 96 92 91 91 91 94
45 51 48 59 63 64 72 58 45 54 73 56 65 62 59 61 72 74 76 74 70 69 65 66 66 63 63 64 66 67 71 70 72 78 80 82 83 84 92 93 94 95 95 93
42 45 48 54 48 60 56 42 43 52 71 85 78 76 69 74 75 79 75 72 69 66 63 62 59 56 56 57 55 54 54 54 58 61 65 68 70 74 80 81 81 83 80 81
52 56 48 40 42 52 52 33 52 62 71 62 72 72 75 68 68 66 64 66 67 67 65 62 58 56 58 56 58 59 56 54 53 57 58 65 70 69 68 70 79 77 81 82
31 43 51 45 65 47 45 39 39 48 56 62 68 63 63 62 63 65 65 63 60 58 58 59 59 59 60 59 59 56 58 60 60 59 60 63 68 73 81 83 82 80 83 85
32 27 26 26 26 35 36 27 24 25 34 38 45 47 42 39 38 41 48 56 59 59 61 65 65 64 62 57 60 61 59 58 59 59 59 59 60 62 68 77 82 88 87 88
47 37 21 27 29 28 25 26 27 24 24 28 39 44 47 50 45 45 43 41 45 47 55 59 64 64 64 60 58 59 61 58 58 61 63 61 62 63 65 65 66 69 74 78
28 29 28 37 32 28 26 25 25 23 22 26 34 41 48 52 52 51 50 48 46 53 55 51 56 61 62 61 57 56 55 54 56 56 58 60 61 60 60 61 62 64 67 71